QFA849 YPDN-YPPH

Flight info

Callsign QFA849
Flight time 3h 38m
Altitude 32000
Route DN J151 IRPOM NISAD REBIR WLU Q73 NOMAV Q25 DALWU Q38 PH
Aircraft B738/M-S/L

Departure

Time 2026-05-05 08:05
Airport Darwin International Airport / RAAF Darwin (YPDN)

Arrival

Time 2026-05-05 11:43
Airport Perth International Airport (YPPH)
Time Latitude Longitude Altitude Speed Heading
2026-05-05 07:31 -12.40885 130.87740 89 ft 0 kts 19°
2026-05-05 07:54 -12.40899 130.87735 91 ft 2 kts 19°
2026-05-05 07:54 -12.40915 130.87729 89 ft 2 kts 20°
2026-05-05 07:55 -12.40931 130.87726 92 ft 2 kts 345°
2026-05-05 07:55 -12.40946 130.87733 89 ft 2 kts 322°
2026-05-05 07:55 -12.40958 130.87745 90 ft 2 kts 303°
2026-05-05 07:55 -12.40964 130.87760 92 ft 2 kts 281°
2026-05-05 07:56 -12.40966 130.87770 90 ft 0 kts 279°
2026-05-05 07:59 -12.40966 130.87767 91 ft 1 kts 279°
2026-05-05 07:59 -12.40961 130.87740 89 ft 7 kts 281°
2026-05-05 07:59 -12.40954 130.87677 90 ft 9 kts 265°
2026-05-05 07:59 -12.40990 130.87612 89 ft 12 kts 220°
2026-05-05 08:00 -12.41077 130.87573 89 ft 15 kts 199°
2026-05-05 08:00 -12.41186 130.87535 93 ft 18 kts 199°
2026-05-05 08:00 -12.41312 130.87491 89 ft 19 kts 199°
2026-05-05 08:00 -12.41419 130.87453 92 ft 14 kts 201°
2026-05-05 08:01 -12.41489 130.87375 90 ft 16 kts 255°
2026-05-05 08:01 -12.41469 130.87260 92 ft 18 kts 289°
2026-05-05 08:01 -12.41424 130.87128 91 ft 21 kts 289°
2026-05-05 08:01 -12.41374 130.86979 89 ft 23 kts 289°
2026-05-05 08:02 -12.41323 130.86829 91 ft 22 kts 289°
2026-05-05 08:02 -12.41276 130.86690 89 ft 20 kts 289°
2026-05-05 08:02 -12.41238 130.86577 90 ft 13 kts 289°
2026-05-05 08:02 -12.41194 130.86501 89 ft 13 kts 320°
2026-05-05 08:03 -12.41111 130.86476 89 ft 13 kts
2026-05-05 08:03 -12.41031 130.86500 89 ft 12 kts 19°
2026-05-05 08:03 -12.40961 130.86532 89 ft 10 kts 41°
2026-05-05 08:03 -12.40955 130.86581 89 ft 8 kts 108°
2026-05-05 08:04 -12.40998 130.86711 93 ft 46 kts 109°
2026-05-05 08:04 -12.41178 130.87243 92 ft 111 kts 109°
2026-05-05 08:04 -12.41493 130.88170 88 ft 164 kts 109°
2026-05-05 08:04 -12.41887 130.89318 626 ft 170 kts 108°
2026-05-05 08:05 -12.42279 130.90486 1273 ft 176 kts 108°
2026-05-05 08:05 -12.42675 130.91672 1981 ft 179 kts 108°
2026-05-05 08:05 -12.43093 130.92952 2377 ft 201 kts 108°
2026-05-05 08:05 -12.43556 130.94388 2542 ft 225 kts 109°
2026-05-05 08:06 -12.44075 130.95981 2743 ft 247 kts 109°
2026-05-05 08:06 -12.44633 130.97689 3289 ft 257 kts 109°
2026-05-05 08:06 -12.45221 130.99388 4079 ft 256 kts 117°
2026-05-05 08:06 -12.46332 131.00834 4855 ft 258 kts 139°
2026-05-05 08:07 -12.47835 131.01808 5609 ft 261 kts 155°
2026-05-05 08:07 -12.49508 131.02567 6331 ft 265 kts 157°
2026-05-05 08:07 -12.51349 131.02742 6984 ft 275 kts 191°
2026-05-05 08:07 -12.53154 131.02034 7668 ft 281 kts 202°
2026-05-05 08:08 -12.54931 131.01173 8348 ft 285 kts 202°
2026-05-05 08:08 -12.56752 131.00335 9059 ft 287 kts 201°
2026-05-05 08:08 -12.58507 130.99341 9735 ft 294 kts 219°
2026-05-05 08:08 -12.59779 130.97682 10333 ft 303 kts 242°
2026-05-05 08:09 -12.60431 130.95548 10526 ft 326 kts 256°
2026-05-05 08:09 -12.60892 130.93198 10679 ft 347 kts 257°
2026-05-05 08:09 -12.61364 130.90712 10831 ft 365 kts 257°
2026-05-05 08:09 -12.61883 130.88111 11063 ft 378 kts 257°
2026-05-05 08:10 -12.62430 130.85461 11571 ft 381 kts 257°
2026-05-05 08:10 -12.62948 130.82813 12303 ft 378 kts 261°
2026-05-05 08:10 -12.63261 130.80139 12917 ft 379 kts 265°
2026-05-05 08:10 -12.63482 130.77431 13375 ft 383 kts 265°
2026-05-05 08:11 -12.63693 130.74704 13910 ft 384 kts 265°
2026-05-05 08:11 -12.63921 130.71971 14358 ft 387 kts 265°
2026-05-05 08:11 -12.64168 130.69254 14792 ft 389 kts 265°
2026-05-05 08:11 -12.64431 130.66491 15239 ft 391 kts 265°
2026-05-05 08:12 -12.64699 130.63706 15709 ft 393 kts 265°
2026-05-05 08:12 -12.65284 130.60975 16113 ft 397 kts 249°
2026-05-05 08:12 -12.66659 130.58509 16566 ft 401 kts 235°
2026-05-05 08:12 -12.68376 130.56242 16976 ft 404 kts 233°
2026-05-05 08:13 -12.70142 130.53990 17363 ft 407 kts 233°
2026-05-05 08:13 -12.71920 130.51724 17751 ft 410 kts 233°
2026-05-05 08:13 -12.73699 130.49432 18144 ft 412 kts 234°
2026-05-05 08:13 -12.75475 130.47120 18484 ft 413 kts 234°
2026-05-05 08:14 -12.77247 130.44798 18852 ft 414 kts 234°
2026-05-05 08:14 -12.79018 130.42469 19227 ft 415 kts 234°
2026-05-05 08:14 -12.80794 130.40132 19576 ft 416 kts 234°
2026-05-05 08:14 -12.82572 130.37792 19924 ft 417 kts 234°
2026-05-05 08:15 -12.84353 130.35448 20256 ft 418 kts 234°
2026-05-05 08:15 -12.86144 130.33091 20574 ft 419 kts 234°
2026-05-05 08:15 -12.87936 130.30730 20883 ft 420 kts 234°
2026-05-05 08:15 -12.89736 130.28360 21181 ft 422 kts 234°
2026-05-05 08:16 -12.91540 130.25982 21474 ft 423 kts 234°
2026-05-05 08:16 -12.93351 130.23595 21753 ft 425 kts 233°
2026-05-05 08:16 -12.95146 130.21228 22026 ft 426 kts 233°
2026-05-05 08:16 -12.96965 130.18829 22286 ft 427 kts 233°
2026-05-05 08:17 -12.98792 130.16418 22567 ft 428 kts 233°
2026-05-05 08:17 -13.00625 130.13999 22815 ft 430 kts 233°
2026-05-05 08:17 -13.02463 130.11571 23061 ft 431 kts 233°
2026-05-05 08:17 -13.04309 130.09135 23299 ft 432 kts 233°
2026-05-05 08:18 -13.06153 130.06698 23512 ft 434 kts 233°
2026-05-05 08:18 -13.08008 130.04247 23698 ft 435 kts 233°
2026-05-05 08:18 -13.09869 130.01788 23894 ft 436 kts 233°
2026-05-05 08:18 -13.11732 129.99325 24094 ft 437 kts 233°
2026-05-05 08:19 -13.13596 129.96859 24269 ft 438 kts 233°
2026-05-05 08:19 -13.15445 129.94413 24454 ft 439 kts 233°
2026-05-05 08:19 -13.17318 129.91935 24644 ft 440 kts 233°
2026-05-05 08:19 -13.19219 129.89418 24824 ft 441 kts 234°
2026-05-05 08:20 -13.21099 129.86929 24999 ft 442 kts 234°
2026-05-05 08:20 -13.22961 129.84464 25176 ft 443 kts 234°
2026-05-05 08:20 -13.24851 129.81960 25356 ft 444 kts 234°
2026-05-05 08:20 -13.26739 129.79459 25529 ft 444 kts 234°
2026-05-05 08:21 -13.28638 129.76943 25702 ft 445 kts 234°
2026-05-05 08:21 -13.30535 129.74428 25864 ft 446 kts 234°
2026-05-05 08:21 -13.32437 129.71905 26035 ft 447 kts 234°
2026-05-05 08:21 -13.34343 129.69376 26197 ft 448 kts 234°
2026-05-05 08:22 -13.36249 129.66846 26375 ft 449 kts 234°
2026-05-05 08:22 -13.38162 129.64306 26526 ft 449 kts 234°
2026-05-05 08:22 -13.40080 129.61759 26680 ft 450 kts 234°
2026-05-05 08:22 -13.41975 129.59240 26837 ft 451 kts 234°
2026-05-05 08:23 -13.43891 129.56695 27061 ft 450 kts 234°
2026-05-05 08:23 -13.45803 129.54154 27328 ft 448 kts 234°
2026-05-05 08:23 -13.47703 129.51627 27593 ft 447 kts 234°
2026-05-05 08:23 -13.49603 129.49100 27828 ft 446 kts 234°
2026-05-05 08:24 -13.51496 129.46582 28077 ft 445 kts 234°
2026-05-05 08:24 -13.53384 129.44069 28340 ft 444 kts 234°
2026-05-05 08:24 -13.55268 129.41560 28607 ft 442 kts 234°
2026-05-05 08:24 -13.57146 129.39060 28863 ft 442 kts 234°
2026-05-05 08:25 -13.59021 129.36562 29123 ft 441 kts 234°
2026-05-05 08:25 -13.60890 129.34071 29394 ft 440 kts 234°
2026-05-05 08:25 -13.62126 129.32424 29582 ft 439 kts 234°
2026-05-05 08:25 -13.64614 129.29108 29960 ft 437 kts 234°
2026-05-05 08:26 -13.65844 129.27467 30114 ft 436 kts 234°
2026-05-05 08:26 -13.67696 129.24997 30328 ft 436 kts 234°
2026-05-05 08:26 -13.69546 129.22528 30533 ft 436 kts 234°
2026-05-05 08:26 -13.71395 129.20059 30757 ft 435 kts 234°
2026-05-05 08:27 -13.73239 129.17598 30986 ft 434 kts 234°
2026-05-05 08:27 -13.75079 129.15141 31234 ft 433 kts 235°
2026-05-05 08:27 -13.76916 129.12687 31465 ft 432 kts 235°
2026-05-05 08:27 -13.78751 129.10235 31678 ft 432 kts 235°
2026-05-05 08:28 -13.80587 129.07781 31888 ft 432 kts 235°
2026-05-05 08:28 -13.82424 129.05325 31887 ft 434 kts 235°
2026-05-05 08:28 -13.86098 129.00410 31900 ft 432 kts 235°
2026-05-05 08:29 -13.89749 128.95524 31907 ft 429 kts 235°
2026-05-05 08:30 -13.95193 128.88232 31906 ft 427 kts 235°
2026-05-05 08:30 -13.98791 128.83410 31912 ft 426 kts 235°
2026-05-05 08:31 -14.02401 128.78568 31910 ft 427 kts 235°
2026-05-05 08:31 -14.06017 128.73715 31912 ft 427 kts 235°
2026-05-05 08:32 -14.09639 128.68850 31913 ft 428 kts 235°
2026-05-05 08:32 -14.13272 128.63970 31913 ft 430 kts 235°
2026-05-05 08:33 -14.17382 128.59470 31917 ft 436 kts 223°
2026-05-05 08:33 -14.22469 128.55999 31917 ft 440 kts 216°
2026-05-05 08:34 -14.27695 128.52678 31918 ft 441 kts 216°
2026-05-05 08:34 -14.32876 128.49362 31914 ft 441 kts 216°
2026-05-05 08:35 -14.38079 128.46002 31914 ft 441 kts 216°
2026-05-05 08:35 -14.43270 128.42636 31915 ft 440 kts 216°
2026-05-05 08:36 -14.48444 128.39276 31919 ft 439 kts 217°
2026-05-05 08:36 -14.53606 128.35922 31917 ft 438 kts 217°
2026-05-05 08:37 -14.58754 128.32576 31916 ft 437 kts 217°
2026-05-05 08:37 -14.63888 128.29238 31918 ft 436 kts 217°
2026-05-05 08:38 -14.69012 128.25904 31918 ft 435 kts 217°
2026-05-05 08:38 -14.74119 128.22580 31920 ft 434 kts 217°
2026-05-05 08:39 -14.79186 128.19279 31917 ft 433 kts 217°
2026-05-05 08:39 -14.84290 128.15952 31925 ft 434 kts 217°
2026-05-05 08:40 -14.89398 128.12621 31919 ft 434 kts 217°
2026-05-05 08:40 -14.94500 128.09292 31922 ft 432 kts 217°
2026-05-05 08:41 -14.99585 128.05973 31925 ft 432 kts 217°
2026-05-05 08:41 -15.04658 128.02660 31918 ft 431 kts 217°
2026-05-05 08:42 -15.09690 127.99371 31919 ft 430 kts 217°
2026-05-05 08:42 -15.14749 127.96062 31920 ft 430 kts 217°
2026-05-05 08:43 -15.19807 127.92753 31924 ft 430 kts 217°
2026-05-05 08:43 -15.24860 127.89444 31916 ft 430 kts 217°
2026-05-05 08:44 -15.29909 127.86137 31922 ft 429 kts 217°
2026-05-05 08:44 -15.34956 127.82829 31925 ft 429 kts 217°
2026-05-05 08:45 -15.40008 127.79516 31919 ft 429 kts 217°
2026-05-05 08:45 -15.45060 127.76200 31922 ft 429 kts 217°
2026-05-05 08:46 -15.50103 127.72889 31927 ft 429 kts 217°
2026-05-05 08:46 -15.55147 127.69575 31930 ft 429 kts 217°
2026-05-05 08:47 -15.60193 127.66258 31924 ft 429 kts 217°
2026-05-05 08:47 -15.65198 127.62966 31926 ft 429 kts 218°
2026-05-05 08:48 -15.70233 127.59652 31929 ft 428 kts 218°
2026-05-05 08:48 -15.75266 127.56338 31935 ft 428 kts 218°
2026-05-05 08:49 -15.80299 127.53021 31931 ft 428 kts 218°
2026-05-05 08:49 -15.85334 127.49702 31931 ft 428 kts 218°
2026-05-05 08:50 -15.90368 127.46381 31933 ft 428 kts 218°
2026-05-05 08:50 -15.95401 127.43058 31931 ft 428 kts 218°
2026-05-05 08:51 -16.00436 127.39732 31934 ft 428 kts 218°
2026-05-05 08:51 -16.05461 127.36411 31943 ft 427 kts 218°
2026-05-05 08:52 -16.10437 127.33121 31941 ft 427 kts 218°
2026-05-05 08:52 -16.15447 127.29806 31951 ft 427 kts 218°
2026-05-05 08:53 -16.20467 127.26481 31949 ft 428 kts 218°
2026-05-05 08:53 -16.25482 127.23159 31951 ft 426 kts 218°
2026-05-05 08:54 -16.30475 127.19851 31946 ft 424 kts 218°
2026-05-05 08:54 -16.35455 127.16547 31954 ft 423 kts 218°
2026-05-05 08:55 -16.40417 127.13253 31949 ft 423 kts 218°
2026-05-05 08:55 -16.45380 127.09957 31952 ft 422 kts 218°
2026-05-05 08:56 -16.50332 127.06665 31949 ft 422 kts 218°
2026-05-05 08:56 -16.55258 127.03389 31948 ft 423 kts 219°
2026-05-05 08:57 -16.60217 127.00089 31959 ft 423 kts 219°
2026-05-05 08:57 -16.65184 126.96782 31953 ft 424 kts 219°
2026-05-05 08:58 -16.70160 126.93467 31958 ft 425 kts 219°
2026-05-05 08:58 -16.75145 126.90144 31959 ft 425 kts 219°
2026-05-05 08:59 -16.80127 126.86821 31958 ft 425 kts 219°
2026-05-05 08:59 -16.85110 126.83495 31961 ft 425 kts 219°
2026-05-05 09:00 -16.90098 126.80164 31957 ft 425 kts 219°
2026-05-05 09:00 -16.95081 126.76834 31958 ft 425 kts 219°
2026-05-05 09:01 -17.00058 126.73506 31957 ft 425 kts 219°
2026-05-05 09:01 -17.05006 126.70194 31962 ft 424 kts 219°
2026-05-05 09:02 -17.09974 126.66868 31961 ft 423 kts 219°
2026-05-05 09:02 -17.14932 126.63547 31955 ft 423 kts 219°
2026-05-05 09:03 -17.19883 126.60227 31955 ft 422 kts 219°
2026-05-05 09:03 -17.24823 126.56913 31952 ft 421 kts 219°
2026-05-05 09:04 -17.29752 126.53604 31957 ft 421 kts 219°
2026-05-05 09:04 -17.34646 126.50316 31949 ft 421 kts 219°
2026-05-05 09:05 -17.39576 126.47002 31950 ft 420 kts 219°
2026-05-05 09:05 -17.44496 126.43692 31948 ft 420 kts 219°
2026-05-05 09:06 -17.49413 126.40382 31951 ft 420 kts 219°
2026-05-05 09:06 -17.54335 126.37068 31945 ft 420 kts 219°
2026-05-05 09:07 -17.59259 126.33749 31947 ft 420 kts 219°
2026-05-05 09:07 -17.64184 126.30427 31946 ft 421 kts 220°
2026-05-05 09:08 -17.69116 126.27099 31947 ft 422 kts 220°
2026-05-05 09:08 -17.74013 126.23792 31941 ft 422 kts 220°
2026-05-05 09:09 -17.78938 126.20466 31930 ft 419 kts 220°
2026-05-05 09:09 -17.83847 126.17146 31943 ft 420 kts 220°
2026-05-05 09:10 -17.88769 126.13814 31934 ft 421 kts 220°
2026-05-05 09:10 -17.93698 126.10476 31936 ft 422 kts 220°
2026-05-05 09:11 -17.98629 126.07136 31932 ft 422 kts 220°
2026-05-05 09:11 -18.03565 126.03789 31929 ft 422 kts 220°
2026-05-05 09:12 -18.08496 126.00444 31928 ft 422 kts 220°
2026-05-05 09:12 -18.13423 125.97100 31929 ft 421 kts 220°
2026-05-05 09:13 -18.18343 125.93757 31922 ft 421 kts 220°
2026-05-05 09:13 -18.22423 125.90984 31926 ft 420 kts 220°
2026-05-05 09:14 -18.27327 125.87648 31923 ft 419 kts 220°
2026-05-05 09:14 -18.32219 125.84318 31924 ft 418 kts 220°
2026-05-05 09:15 -18.37108 125.80987 31911 ft 418 kts 220°
2026-05-05 09:15 -18.42775 125.77124 31923 ft 417 kts 220°
2026-05-05 09:16 -18.46859 125.74338 31928 ft 417 kts 220°
2026-05-05 09:16 -18.51699 125.71034 31924 ft 417 kts 221°
2026-05-05 09:17 -18.56564 125.67710 31924 ft 417 kts 221°
2026-05-05 09:17 -18.61441 125.64376 31926 ft 417 kts 221°
2026-05-05 09:18 -18.66317 125.61040 31925 ft 417 kts 221°
2026-05-05 09:18 -18.71188 125.57706 31928 ft 417 kts 221°
2026-05-05 09:19 -18.76067 125.54451 31923 ft 419 kts 219°
2026-05-05 09:19 -18.81083 125.51291 31933 ft 420 kts 219°
2026-05-05 09:20 -18.86109 125.48138 31931 ft 420 kts 219°
2026-05-05 09:20 -18.91125 125.44968 31932 ft 419 kts 219°
2026-05-05 09:21 -18.96126 125.41792 31938 ft 419 kts 219°
2026-05-05 09:21 -19.01125 125.38611 31936 ft 419 kts 219°
2026-05-05 09:22 -19.06113 125.35434 31936 ft 419 kts 219°
2026-05-05 09:22 -19.11067 125.32276 31941 ft 418 kts 219°
2026-05-05 09:23 -19.16052 125.29097 31946 ft 418 kts 219°
2026-05-05 09:23 -19.21032 125.25919 31944 ft 418 kts 219°
2026-05-05 09:24 -19.26006 125.22742 31947 ft 417 kts 220°
2026-05-05 09:24 -19.30979 125.19564 31949 ft 417 kts 220°
2026-05-05 09:25 -19.35915 125.16407 31952 ft 416 kts 220°
2026-05-05 09:25 -19.40873 125.13234 31943 ft 416 kts 220°
2026-05-05 09:26 -19.45823 125.10064 31957 ft 416 kts 220°
2026-05-05 09:26 -19.50774 125.06890 31952 ft 416 kts 220°
2026-05-05 09:27 -19.55719 125.03718 31952 ft 416 kts 220°
2026-05-05 09:27 -19.60667 125.00542 31957 ft 415 kts 220°
2026-05-05 09:28 -19.65611 124.97366 31956 ft 415 kts 220°
2026-05-05 09:28 -19.70557 124.94187 31958 ft 415 kts 220°
2026-05-05 09:29 -19.75465 124.91030 31956 ft 415 kts 220°
2026-05-05 09:29 -19.80404 124.87850 31960 ft 415 kts 220°
2026-05-05 09:30 -19.85347 124.84665 31962 ft 415 kts 220°
2026-05-05 09:30 -19.90289 124.81479 31966 ft 415 kts 220°
2026-05-05 09:31 -19.95229 124.78292 31963 ft 415 kts 220°
2026-05-05 09:31 -20.00163 124.75106 31969 ft 415 kts 220°
2026-05-05 09:32 -20.05108 124.71911 31971 ft 415 kts 220°
2026-05-05 09:32 -20.10019 124.68736 31975 ft 416 kts 220°
2026-05-05 09:33 -20.15006 124.65503 32191 ft 422 kts 220°
2026-05-05 09:33 -20.17513 124.63881 32508 ft 420 kts 220°
2026-05-05 09:33 -20.20004 124.62271 32882 ft 417 kts 220°
2026-05-05 09:33 -20.22478 124.60672 33202 ft 415 kts 220°
2026-05-05 09:34 -20.24948 124.59071 33434 ft 415 kts 220°
2026-05-05 09:34 -20.27420 124.57467 33634 ft 416 kts 220°
2026-05-05 09:34 -20.29891 124.55863 33882 ft 415 kts 220°
2026-05-05 09:35 -20.34828 124.52657 33986 ft 416 kts 220°
2026-05-05 09:35 -20.42240 124.47843 33992 ft 414 kts 220°
2026-05-05 09:36 -20.47122 124.44669 33990 ft 413 kts 220°
2026-05-05 09:36 -20.52025 124.41478 33990 ft 412 kts 220°
2026-05-05 09:37 -20.56915 124.38293 34001 ft 412 kts 220°
2026-05-05 09:37 -20.61808 124.35102 34001 ft 412 kts 220°
2026-05-05 09:38 -20.66709 124.31904 33999 ft 413 kts 220°
2026-05-05 09:38 -20.71615 124.28701 34003 ft 414 kts 220°
2026-05-05 09:39 -20.76541 124.25483 34011 ft 416 kts 220°
2026-05-05 09:39 -20.81482 124.22252 34004 ft 416 kts 220°
2026-05-05 09:40 -20.86423 124.19021 34010 ft 416 kts 220°
2026-05-05 09:40 -20.91355 124.15792 34006 ft 415 kts 220°
2026-05-05 09:41 -20.96285 124.12561 34011 ft 415 kts 220°
2026-05-05 09:41 -21.01211 124.09330 34011 ft 415 kts 220°
2026-05-05 09:42 -21.06098 124.06122 34017 ft 415 kts 220°
2026-05-05 09:42 -21.11028 124.02883 34018 ft 415 kts 220°
2026-05-05 09:43 -21.15953 123.99644 34017 ft 415 kts 220°
2026-05-05 09:43 -21.20876 123.96405 34016 ft 415 kts 220°
2026-05-05 09:44 -21.25803 123.93162 34020 ft 415 kts 220°
2026-05-05 09:44 -21.30725 123.89919 34032 ft 415 kts 221°
2026-05-05 09:45 -21.35641 123.86675 34026 ft 415 kts 221°
2026-05-05 09:45 -21.40551 123.83433 34028 ft 414 kts 221°
2026-05-05 09:46 -21.45452 123.80195 34034 ft 414 kts 221°
2026-05-05 09:46 -21.50350 123.76955 34041 ft 413 kts 221°
2026-05-05 09:47 -21.55214 123.73735 34036 ft 413 kts 221°
2026-05-05 09:47 -21.60101 123.70498 34039 ft 412 kts 221°
2026-05-05 09:48 -21.64971 123.67268 34039 ft 411 kts 221°
2026-05-05 09:48 -21.69844 123.64035 34041 ft 411 kts 221°
2026-05-05 09:49 -21.74703 123.60808 34046 ft 410 kts 221°
2026-05-05 09:49 -21.79566 123.57575 34048 ft 410 kts 221°
2026-05-05 09:50 -21.84419 123.54347 34054 ft 410 kts 221°
2026-05-05 09:50 -21.89271 123.51116 34055 ft 410 kts 221°
2026-05-05 09:51 -21.94126 123.47882 34058 ft 410 kts 221°
2026-05-05 09:51 -21.98981 123.44644 34060 ft 410 kts 221°
2026-05-05 09:52 -22.03806 123.41424 34058 ft 410 kts 221°
2026-05-05 09:52 -22.08667 123.38178 34065 ft 410 kts 221°
2026-05-05 09:53 -22.13517 123.34936 34057 ft 410 kts 221°
2026-05-05 09:53 -22.18373 123.31688 34068 ft 410 kts 221°
2026-05-05 09:54 -22.23229 123.28436 34074 ft 410 kts 221°
2026-05-05 09:54 -22.28047 123.25208 34069 ft 410 kts 221°
2026-05-05 09:55 -22.32895 123.21956 34071 ft 410 kts 221°
2026-05-05 09:55 -22.37742 123.18703 34077 ft 410 kts 221°
2026-05-05 09:56 -22.42585 123.15450 34075 ft 410 kts 221°
2026-05-05 09:56 -22.47428 123.12194 34084 ft 409 kts 221°
2026-05-05 09:57 -22.52273 123.08935 34085 ft 409 kts 221°
2026-05-05 09:57 -22.57104 123.05681 34086 ft 409 kts 221°
2026-05-05 09:58 -22.61936 123.02424 34091 ft 409 kts 221°
2026-05-05 09:58 -22.66766 122.99166 34093 ft 409 kts 221°
2026-05-05 09:59 -22.71596 122.95905 34097 ft 409 kts 221°
2026-05-05 09:59 -22.76395 122.92662 34100 ft 409 kts 221°
2026-05-05 10:00 -22.81222 122.89397 34101 ft 409 kts 221°
2026-05-05 10:00 -22.86056 122.86126 34102 ft 409 kts 221°
2026-05-05 10:01 -22.90887 122.82853 34107 ft 410 kts 221°
2026-05-05 10:01 -22.95724 122.79573 34111 ft 410 kts 221°
2026-05-05 10:02 -23.00561 122.76291 34113 ft 410 kts 221°
2026-05-05 10:02 -23.05399 122.73006 34118 ft 410 kts 221°
2026-05-05 10:03 -23.09451 122.70252 34132 ft 410 kts 221°
2026-05-05 10:03 -23.14259 122.66981 34124 ft 410 kts 221°
2026-05-05 10:04 -23.19108 122.63679 34126 ft 411 kts 221°
2026-05-05 10:04 -23.23948 122.60381 34125 ft 411 kts 221°
2026-05-05 10:05 -23.28795 122.57076 34132 ft 411 kts 221°
2026-05-05 10:05 -23.33640 122.53769 34125 ft 411 kts 221°
2026-05-05 10:06 -23.38488 122.50457 34137 ft 411 kts 221°
2026-05-05 10:06 -23.43296 122.47169 34129 ft 411 kts 221°
2026-05-05 10:07 -23.48140 122.43854 34139 ft 411 kts 221°
2026-05-05 10:07 -23.52979 122.40540 34138 ft 411 kts 221°
2026-05-05 10:08 -23.57813 122.37225 34143 ft 410 kts 221°
2026-05-05 10:08 -23.62653 122.33904 34144 ft 411 kts 221°
2026-05-05 10:09 -23.67465 122.30599 34146 ft 411 kts 221°
2026-05-05 10:09 -23.72308 122.27270 34148 ft 411 kts 221°
2026-05-05 10:10 -23.77149 122.23940 34150 ft 411 kts 221°
2026-05-05 10:10 -23.81995 122.20602 34158 ft 411 kts 220°
2026-05-05 10:11 -23.86838 122.17264 34159 ft 412 kts 220°
2026-05-05 10:11 -23.91690 122.13916 34160 ft 412 kts 220°
2026-05-05 10:12 -23.96514 122.10586 34158 ft 413 kts 220°
2026-05-05 10:12 -24.01374 122.07227 34162 ft 413 kts 220°
2026-05-05 10:13 -24.06234 122.03865 34168 ft 414 kts 220°
2026-05-05 10:13 -24.11111 122.00489 34172 ft 414 kts 220°
2026-05-05 10:14 -24.15293 121.97590 34168 ft 415 kts 220°
2026-05-05 10:14 -24.20178 121.94203 34175 ft 415 kts 220°
2026-05-05 10:15 -24.25060 121.90814 34179 ft 416 kts 220°
2026-05-05 10:15 -24.29949 121.87416 34182 ft 417 kts 219°
2026-05-05 10:16 -24.34849 121.84009 34183 ft 417 kts 219°
2026-05-05 10:16 -24.39722 121.80616 34183 ft 418 kts 219°
2026-05-05 10:17 -24.44633 121.77194 34183 ft 419 kts 219°
2026-05-05 10:17 -24.49560 121.73758 34189 ft 420 kts 219°
2026-05-05 10:18 -24.54493 121.70315 34187 ft 420 kts 219°
2026-05-05 10:18 -24.59439 121.66859 34179 ft 421 kts 219°
2026-05-05 10:19 -24.64390 121.63396 34195 ft 422 kts 218°
2026-05-05 10:19 -24.69351 121.59923 34196 ft 423 kts 218°
2026-05-05 10:20 -24.74320 121.56441 34190 ft 424 kts 218°
2026-05-05 10:20 -24.79274 121.52966 34196 ft 425 kts 218°
2026-05-05 10:21 -24.84262 121.49463 34198 ft 426 kts 217°
2026-05-05 10:21 -24.89267 121.45946 34202 ft 427 kts 217°
2026-05-05 10:22 -24.94284 121.42417 34202 ft 428 kts 217°
2026-05-05 10:22 -24.99319 121.38872 34202 ft 430 kts 217°
2026-05-05 10:23 -25.04368 121.35313 34208 ft 431 kts 217°
2026-05-05 10:23 -25.09396 121.31765 34210 ft 432 kts 216°
2026-05-05 10:24 -25.14243 121.28343 34211 ft 434 kts 216°
2026-05-05 10:24 -25.17410 121.26105 34212 ft 434 kts 216°
2026-05-05 10:25 -25.22505 121.22501 34216 ft 435 kts 216°
2026-05-05 10:25 -25.27609 121.18887 34214 ft 436 kts 216°
2026-05-05 10:26 -25.32721 121.15263 34223 ft 436 kts 216°
2026-05-05 10:26 -25.37803 121.11658 34218 ft 437 kts 216°
2026-05-05 10:27 -25.42916 121.08026 34223 ft 436 kts 216°
2026-05-05 10:27 -25.48025 121.04394 34226 ft 436 kts 216°
2026-05-05 10:28 -25.53128 121.00763 34226 ft 436 kts 216°
2026-05-05 10:28 -25.58230 120.97128 34228 ft 435 kts 216°
2026-05-05 10:29 -25.63327 120.93493 34230 ft 435 kts 216°
2026-05-05 10:29 -25.68392 120.89877 34230 ft 435 kts 216°
2026-05-05 10:30 -25.73480 120.86241 34232 ft 435 kts 216°
2026-05-05 10:30 -25.78568 120.82602 34233 ft 435 kts 216°
2026-05-05 10:31 -25.83656 120.78958 34230 ft 435 kts 216°
2026-05-05 10:31 -25.88742 120.75312 34229 ft 435 kts 215°
2026-05-05 10:32 -25.93842 120.71652 34234 ft 436 kts 215°
2026-05-05 10:32 -25.98940 120.67990 34234 ft 436 kts 215°
2026-05-05 10:33 -26.02550 120.65394 34237 ft 437 kts 215°
2026-05-05 10:33 -26.07651 120.61724 34236 ft 437 kts 215°
2026-05-05 10:34 -26.12732 120.58063 34240 ft 438 kts 215°
2026-05-05 10:34 -26.17846 120.54375 34238 ft 438 kts 215°
2026-05-05 10:35 -26.22970 120.50676 34242 ft 439 kts 215°
2026-05-05 10:35 -26.28097 120.46971 34238 ft 439 kts 215°
2026-05-05 10:36 -26.33219 120.43265 34243 ft 439 kts 215°
2026-05-05 10:36 -26.38355 120.39545 34246 ft 439 kts 215°
2026-05-05 10:37 -26.43475 120.35833 34243 ft 439 kts 215°
2026-05-05 10:37 -26.48558 120.32143 34245 ft 439 kts 215°
2026-05-05 10:38 -26.53670 120.28428 34247 ft 438 kts 215°
2026-05-05 10:38 -26.58777 120.24713 34249 ft 438 kts 215°
2026-05-05 10:39 -26.63898 120.21037 34249 ft 438 kts 213°
2026-05-05 10:39 -26.69172 120.17624 34255 ft 438 kts 211°
2026-05-05 10:40 -26.74484 120.14282 34251 ft 437 kts 211°
2026-05-05 10:40 -26.79777 120.10923 34255 ft 437 kts 212°
2026-05-05 10:41 -26.85057 120.07542 34252 ft 437 kts 212°
2026-05-05 10:41 -26.90301 120.04170 34258 ft 436 kts 212°
2026-05-05 10:42 -26.98201 119.99081 34261 ft 436 kts 212°
2026-05-05 10:43 -27.03463 119.95687 34266 ft 436 kts 212°
2026-05-05 10:43 -27.08723 119.92291 34263 ft 436 kts 212°
2026-05-05 10:44 -27.13993 119.88885 34264 ft 436 kts 212°
2026-05-05 10:44 -27.19249 119.85484 34269 ft 436 kts 212°
2026-05-05 10:45 -27.24510 119.82077 34269 ft 437 kts 212°
2026-05-05 10:45 -27.29750 119.78679 34272 ft 437 kts 212°
2026-05-05 10:46 -27.35015 119.75261 34271 ft 437 kts 212°
2026-05-05 10:46 -27.40282 119.71838 34274 ft 437 kts 212°
2026-05-05 10:47 -27.45556 119.68407 34275 ft 437 kts 212°
2026-05-05 10:47 -27.50796 119.64994 34276 ft 437 kts 212°
2026-05-05 10:48 -27.56070 119.61555 34276 ft 437 kts 212°
2026-05-05 10:48 -27.61339 119.58116 34280 ft 437 kts 212°
2026-05-05 10:49 -27.66608 119.54673 34280 ft 437 kts 212°
2026-05-05 10:49 -27.71869 119.51231 34283 ft 437 kts 212°
2026-05-05 10:50 -27.77131 119.47785 34281 ft 437 kts 212°
2026-05-05 10:50 -27.82386 119.44339 34286 ft 437 kts 212°
2026-05-05 10:51 -27.87608 119.40910 34285 ft 436 kts 212°
2026-05-05 10:51 -27.92009 119.38018 34280 ft 436 kts 212°
2026-05-05 10:52 -27.97254 119.34568 34286 ft 436 kts 212°
2026-05-05 10:52 -28.02463 119.31138 34288 ft 435 kts 212°
2026-05-05 10:53 -28.07701 119.27684 34287 ft 435 kts 212°
2026-05-05 10:53 -28.12934 119.24230 34292 ft 435 kts 212°
2026-05-05 10:54 -28.18165 119.20773 34291 ft 435 kts 212°
2026-05-05 10:54 -28.23357 119.17338 34294 ft 435 kts 212°
2026-05-05 10:55 -28.28580 119.13878 34289 ft 435 kts 212°
2026-05-05 10:55 -28.33798 119.10419 34293 ft 434 kts 212°
2026-05-05 10:56 -28.39025 119.06948 34293 ft 435 kts 212°
2026-05-05 10:56 -28.44244 119.03480 34289 ft 435 kts 212°
2026-05-05 10:57 -28.49469 119.00015 34294 ft 434 kts 212°
2026-05-05 10:57 -28.54678 118.96537 34295 ft 434 kts 212°
2026-05-05 10:58 -28.59888 118.93055 34295 ft 434 kts 212°
2026-05-05 10:58 -28.65102 118.89575 34298 ft 434 kts 212°
2026-05-05 10:59 -28.70309 118.86094 34301 ft 434 kts 212°
2026-05-05 10:59 -28.75520 118.82607 34301 ft 434 kts 212°
2026-05-05 11:00 -28.80725 118.79119 34302 ft 434 kts 212°
2026-05-05 11:00 -28.85932 118.75625 34302 ft 434 kts 212°
2026-05-05 11:01 -28.91136 118.72129 34306 ft 434 kts 212°
2026-05-05 11:01 -28.96309 118.68655 34307 ft 434 kts 212°
2026-05-05 11:02 -29.01514 118.65173 34307 ft 434 kts 212°
2026-05-05 11:02 -29.06719 118.61688 34301 ft 433 kts 213°
2026-05-05 11:03 -29.11917 118.58201 34306 ft 433 kts 213°
2026-05-05 11:03 -29.17107 118.54700 34308 ft 432 kts 215°
2026-05-05 11:04 -29.21612 118.50227 34308 ft 428 kts 231°
2026-05-05 11:04 -29.25079 118.44709 34304 ft 427 kts 237°
2026-05-05 11:05 -29.28433 118.39074 34307 ft 427 kts 237°
2026-05-05 11:05 -29.31801 118.33466 34305 ft 427 kts 237°
2026-05-05 11:06 -29.35168 118.27902 34305 ft 427 kts 236°
2026-05-05 11:06 -29.38553 118.22313 34303 ft 426 kts 237°
2026-05-05 11:07 -29.41930 118.16728 34305 ft 426 kts 237°
2026-05-05 11:07 -29.45302 118.11142 34305 ft 425 kts 237°
2026-05-05 11:08 -29.48666 118.05562 34303 ft 425 kts 237°
2026-05-05 11:08 -29.52029 117.99976 34299 ft 425 kts 237°
2026-05-05 11:09 -29.55393 117.94382 34305 ft 426 kts 237°
2026-05-05 11:09 -29.58760 117.88783 34301 ft 427 kts 237°
2026-05-05 11:10 -29.62142 117.83155 34306 ft 427 kts 237°
2026-05-05 11:10 -29.65499 117.77560 34306 ft 428 kts 237°
2026-05-05 11:11 -29.68865 117.71940 34295 ft 424 kts 237°
2026-05-05 11:11 -29.72208 117.66351 34307 ft 424 kts 237°
2026-05-05 11:12 -29.75553 117.60750 34307 ft 425 kts 237°
2026-05-05 11:12 -29.78910 117.55121 34302 ft 426 kts 237°
2026-05-05 11:13 -29.82263 117.49492 34305 ft 427 kts 237°
2026-05-05 11:13 -29.85600 117.43884 34302 ft 427 kts 237°
2026-05-05 11:14 -29.88946 117.38250 34308 ft 426 kts 237°
2026-05-05 11:14 -29.92290 117.32613 34307 ft 426 kts 237°
2026-05-05 11:15 -29.95626 117.26980 34309 ft 425 kts 237°
2026-05-05 11:15 -29.98957 117.21351 34304 ft 425 kts 237°
2026-05-05 11:16 -30.02278 117.15728 34305 ft 423 kts 237°
2026-05-05 11:16 -30.05593 117.10108 34047 ft 425 kts 237°
2026-05-05 11:16 -30.07246 117.07302 33690 ft 420 kts 237°
2026-05-05 11:17 -30.08877 117.04535 33262 ft 414 kts 237°
2026-05-05 11:17 -30.10487 117.01798 32803 ft 410 kts 237°
2026-05-05 11:17 -30.12083 116.99084 32367 ft 406 kts 237°
2026-05-05 11:17 -30.13664 116.96394 31937 ft 403 kts 237°
2026-05-05 11:18 -30.15232 116.93724 31509 ft 400 kts 237°
2026-05-05 11:18 -30.16787 116.91073 31091 ft 397 kts 237°
2026-05-05 11:18 -30.18334 116.88433 30668 ft 395 kts 237°
2026-05-05 11:18 -30.19868 116.85817 30229 ft 393 kts 236°
2026-05-05 11:19 -30.21397 116.83208 29741 ft 390 kts 236°
2026-05-05 11:19 -30.22957 116.80660 29277 ft 387 kts 230°
2026-05-05 11:19 -30.24869 116.78490 28864 ft 384 kts 220°
2026-05-05 11:19 -30.27065 116.76704 28125 ft 390 kts 210°
2026-05-05 11:20 -30.29518 116.75391 27701 ft 388 kts 204°
2026-05-05 11:20 -30.32017 116.74217 27238 ft 386 kts 203°
2026-05-05 11:20 -30.34504 116.73072 26813 ft 384 kts 203°
2026-05-05 11:20 -30.36978 116.71926 26397 ft 381 kts 203°
2026-05-05 11:21 -30.39427 116.70778 25986 ft 379 kts 203°
2026-05-05 11:21 -30.41830 116.69640 25590 ft 377 kts 203°
2026-05-05 11:21 -30.44251 116.68487 25160 ft 375 kts 203°
2026-05-05 11:21 -30.46663 116.67335 24754 ft 374 kts 203°
2026-05-05 11:22 -30.49066 116.66185 24341 ft 373 kts 203°
2026-05-05 11:22 -30.51469 116.65036 23920 ft 373 kts 203°
2026-05-05 11:22 -30.53866 116.63889 23449 ft 372 kts 203°
2026-05-05 11:22 -30.56260 116.62779 22971 ft 371 kts 201°
2026-05-05 11:23 -30.58700 116.61795 22465 ft 371 kts 199°
2026-05-05 11:23 -30.61147 116.60868 22039 ft 369 kts 198°
2026-05-05 11:23 -30.63581 116.59953 21625 ft 366 kts 198°
2026-05-05 11:23 -30.65994 116.59038 21222 ft 363 kts 199°
2026-05-05 11:24 -30.68385 116.58120 20838 ft 361 kts 199°
2026-05-05 11:24 -30.70762 116.57201 20452 ft 358 kts 199°
2026-05-05 11:24 -30.73116 116.56287 20074 ft 356 kts 199°
2026-05-05 11:24 -30.75460 116.55375 19690 ft 354 kts 199°
2026-05-05 11:25 -30.77790 116.54468 19314 ft 352 kts 199°
2026-05-05 11:25 -30.80103 116.53567 18940 ft 350 kts 199°
2026-05-05 11:25 -30.82380 116.52680 18582 ft 347 kts 199°
2026-05-05 11:25 -30.84663 116.51789 18170 ft 345 kts 198°
2026-05-05 11:26 -30.86929 116.50905 17772 ft 342 kts 198°
2026-05-05 11:26 -30.89178 116.50026 17396 ft 340 kts 198°
2026-05-05 11:26 -30.91412 116.49153 17022 ft 337 kts 198°
2026-05-05 11:26 -30.93629 116.48286 16649 ft 335 kts 198°
2026-05-05 11:27 -30.95833 116.47424 16284 ft 333 kts 198°
2026-05-05 11:27 -30.98030 116.46565 15919 ft 334 kts 198°
2026-05-05 11:27 -31.00231 116.45703 15559 ft 334 kts 197°
2026-05-05 11:27 -31.02439 116.44839 15200 ft 334 kts 197°
2026-05-05 11:28 -31.04634 116.43979 14842 ft 332 kts 197°
2026-05-05 11:28 -31.06812 116.43124 14491 ft 330 kts 197°
2026-05-05 11:28 -31.08979 116.42273 14141 ft 328 kts 197°
2026-05-05 11:28 -31.11136 116.41425 13770 ft 325 kts 197°
2026-05-05 11:29 -31.13267 116.40587 13432 ft 322 kts 197°
2026-05-05 11:29 -31.15380 116.39756 13098 ft 319 kts 197°
2026-05-05 11:29 -31.17477 116.38931 12763 ft 316 kts 197°
2026-05-05 11:29 -31.19550 116.38115 12441 ft 314 kts 197°
2026-05-05 11:30 -31.21612 116.37303 12118 ft 312 kts 197°
2026-05-05 11:30 -31.23659 116.36497 11792 ft 310 kts 197°
2026-05-05 11:30 -31.25701 116.35692 11476 ft 309 kts 197°
2026-05-05 11:30 -31.27735 116.34890 11161 ft 308 kts 197°
2026-05-05 11:31 -31.29757 116.34092 10847 ft 305 kts 197°
2026-05-05 11:31 -31.31762 116.33300 10534 ft 303 kts 197°
2026-05-05 11:31 -31.33745 116.32516 10223 ft 298 kts 197°
2026-05-05 11:31 -31.35687 116.31749 9888 ft 292 kts 197°
2026-05-05 11:32 -31.37591 116.30997 9542 ft 286 kts 197°
2026-05-05 11:32 -31.39457 116.30259 9207 ft 281 kts 197°
2026-05-05 11:32 -31.41287 116.29534 8876 ft 276 kts 198°
2026-05-05 11:32 -31.43038 116.28645 8544 ft 272 kts 206°
2026-05-05 11:33 -31.44701 116.27582 8229 ft 272 kts 208°
2026-05-05 11:33 -31.46349 116.26488 7914 ft 272 kts 208°
2026-05-05 11:33 -31.47997 116.25398 7602 ft 273 kts 208°
2026-05-05 11:33 -31.49657 116.24311 7288 ft 273 kts 208°
2026-05-05 11:34 -31.51316 116.23234 6980 ft 273 kts 208°
2026-05-05 11:34 -31.52980 116.22159 6666 ft 273 kts 207°
2026-05-05 11:34 -31.54639 116.21092 6335 ft 270 kts 207°
2026-05-05 11:34 -31.56277 116.20039 5999 ft 267 kts 207°
2026-05-05 11:35 -31.57872 116.19015 5673 ft 263 kts 207°
2026-05-05 11:35 -31.59469 116.17991 5351 ft 260 kts 207°
2026-05-05 11:35 -31.61045 116.16981 5026 ft 257 kts 207°
2026-05-05 11:35 -31.62605 116.15980 4707 ft 254 kts 207°
2026-05-05 11:36 -31.64147 116.14991 4485 ft 251 kts 206°
2026-05-05 11:36 -31.65675 116.14010 4256 ft 249 kts 206°
2026-05-05 11:36 -31.67183 116.13040 4046 ft 246 kts 206°
2026-05-05 11:36 -31.68671 116.12083 3831 ft 243 kts 206°
2026-05-05 11:37 -31.70145 116.11136 3625 ft 240 kts 206°
2026-05-05 11:37 -31.71111 116.10515 3484 ft 238 kts 206°
2026-05-05 11:37 -31.72549 116.09590 3290 ft 231 kts 205°
2026-05-05 11:37 -31.73927 116.08703 3102 ft 220 kts 206°
2026-05-05 11:38 -31.75226 116.07828 2892 ft 211 kts 214°
2026-05-05 11:38 -31.76171 116.06551 2691 ft 203 kts 231°
2026-05-05 11:38 -31.76999 116.05236 2525 ft 196 kts 230°
2026-05-05 11:38 -31.77805 116.03982 2507 ft 189 kts 230°
2026-05-05 11:39 -31.78583 116.02776 2486 ft 182 kts 230°
2026-05-05 11:39 -31.79332 116.01620 2491 ft 180 kts 228°
2026-05-05 11:39 -31.80319 116.00794 2500 ft 173 kts 192°
2026-05-05 11:39 -31.81499 116.00334 2314 ft 182 kts 200°
2026-05-05 11:40 -31.82381 115.99925 2148 ft 177 kts 193°
2026-05-05 11:40 -31.83189 115.99667 1988 ft 174 kts 190°
2026-05-05 11:40 -31.84335 115.99338 1740 ft 164 kts 190°
2026-05-05 11:41 -31.85386 115.99032 1581 ft 150 kts 190°
2026-05-05 11:41 -31.86405 115.98737 1350 ft 150 kts 191°
2026-05-05 11:41 -31.87399 115.98448 1163 ft 144 kts 191°
2026-05-05 11:41 -31.88368 115.98164 996 ft 144 kts 192°
2026-05-05 11:42 -31.89290 115.97891 814 ft 144 kts 193°
2026-05-05 11:42 -31.90253 115.97613 631 ft 142 kts 193°
2026-05-05 11:42 -31.91204 115.97330 426 ft 139 kts 194°
2026-05-05 11:42 -31.92138 115.97058 246 ft 139 kts 193°
2026-05-05 11:43 -31.93070 115.96785 71 ft 137 kts 194°
2026-05-05 11:43 -31.93901 115.96543 51 ft 99 kts 194°
2026-05-05 11:43 -31.94362 115.96409 50 ft 37 kts 194°
2026-05-05 11:43 -31.94517 115.96363 49 ft 17 kts 194°
2026-05-05 11:44 -31.94607 115.96296 44 ft 16 kts 244°
2026-05-05 11:44 -31.94607 115.96199 50 ft 10 kts 283°
2026-05-05 11:44 -31.94576 115.96125 50 ft 11 kts 328°
2026-05-05 11:44 -31.94492 115.96133 50 ft 14 kts 14°
2026-05-05 11:45 -31.94379 115.96166 48 ft 19 kts 14°
2026-05-05 11:45 -31.94237 115.96207 48 ft 23 kts 14°
2026-05-05 11:45 -31.94105 115.96246 49 ft 17 kts 14°
2026-05-05 11:45 -31.94016 115.96257 50 ft 12 kts 347°
2026-05-05 11:46 -31.93922 115.96231 50 ft 15 kts 347°
2026-05-05 11:46 -31.93809 115.96200 50 ft 18 kts 347°
2026-05-05 11:46 -31.93701 115.96179 50 ft 13 kts 351°
2026-05-05 11:46 -31.93610 115.96189 50 ft 14 kts 14°
2026-05-05 11:47 -31.93526 115.96223 50 ft 13 kts 28°
2026-05-05 11:47 -31.93441 115.96278 49 ft 15 kts 24°
2026-05-05 11:47 -31.93351 115.96313 50 ft 12 kts 11°
2026-05-05 11:47 -31.93267 115.96329 50 ft 12 kts
2026-05-05 11:48 -31.93184 115.96296 50 ft 5 kts 252°
2026-05-05 11:48 -31.93201 115.96272 50 ft 2 kts 226°
2026-05-05 11:48 -31.93207 115.96250 50 ft 3 kts 272°
2026-05-05 11:49 -31.93196 115.96234 50 ft 0 kts 317°
2026-05-05 11:49 -31.93195 115.96233 50 ft 1 kts 317°
2026-05-05 11:49 -31.93179 115.96216 50 ft 6 kts 317°
2026-05-05 11:50 -31.93151 115.96162 48 ft 9 kts 289°
2026-05-05 11:50 -31.93130 115.96120 50 ft 5 kts 334°
2026-05-05 11:50 -31.93095 115.96134 50 ft 6 kts 38°
2026-05-05 11:50 -31.93061 115.96170 50 ft 6 kts 43°
2026-05-05 11:51 -31.93034 115.96207 49 ft 6 kts 73°
2026-05-05 11:51 -31.93059 115.96246 50 ft 7 kts 149°
2026-05-05 11:51 -31.93111 115.96282 50 ft 10 kts 149°
2026-05-05 11:51 -31.93168 115.96322 48 ft 6 kts 151°
2026-05-05 11:52 -31.93214 115.96328 50 ft 7 kts 179°
2026-05-05 11:52 -31.93259 115.96310 50 ft 7 kts 231°
2026-05-05 11:52 -31.93274 115.96255 50 ft 7 kts 254°
2026-05-05 11:52 -31.93285 115.96212 50 ft 2 kts 253°
2026-05-05 11:53 -31.93286 115.96206 50 ft 0 kts 253°